Previsão horária em Abaytikau

Hoje, 30 Setembro, Quarta-feira

Tempo Temperatura Precipitação Vento Pressão Humidade
00:00 +5°C° 0 mm 2 m/s 576 mmHg 82%
01:00 +5°C° 0 mm 2 m/s 576 mmHg 81%
02:00 +4°C° 0 mm 2 m/s 576 mmHg 80%
03:00 +4°C° 0 mm 2 m/s 575 mmHg 79%
04:00 +4°C° 0 mm 2 m/s 575 mmHg 78%
05:00 +4°C° 0 mm 2 m/s 575 mmHg 76%
06:00 +4°C° 0 mm 2 m/s 575 mmHg 75%
07:00 +6°C° 0 mm 2 m/s 576 mmHg 70%
08:00 +9°C° 0 mm 1 m/s 576 mmHg 65%
09:00 +11°C° 0 mm 1 m/s 577 mmHg 61%
10:00 +12°C° 0 mm 1 m/s 578 mmHg 59%
11:00 +12°C° 0 mm 1 m/s 578 mmHg 58%
12:00 +13°C° 0 mm 2 m/s 578 mmHg 57%
13:00 +13°C° 0.1 mm 1 m/s 578 mmHg 60%
14:00 +12°C° 0.1 mm 1 m/s 577 mmHg 64%
15:00 +12°C° 0.1 mm 1 m/s 577 mmHg 67%
16:00 +10°C° 0 mm 1 m/s 576 mmHg 75%
17:00 +9°C° 0 mm 1 m/s 576 mmHg 83%
18:00 +7°C° 0 mm 1 m/s 575 mmHg 90%
19:00 +7°C° 0 mm 1 m/s 575 mmHg 89%
20:00 +6°C° 0 mm 2 m/s 575 mmHg 87%
21:00 +5°C° 0 mm 2 m/s 575 mmHg 86%
22:00 +5°C° 0 mm 2 m/s 575 mmHg 86%
23:00 +5°C° 0 mm 2 m/s 575 mmHg 85%

Amanhã, 1 Outubro, Quinta-feira

Tempo Temperatura Precipitação Vento Pressão Humidade
00:00 +5°C° 0 mm 2 m/s 575 mmHg 85%
01:00 +4°C° 0 mm 2 m/s 575 mmHg 85%
02:00 +4°C° 0 mm 2 m/s 575 mmHg 85%
03:00 +4°C° 0 mm 2 m/s 574 mmHg 85%
04:00 +4°C° 0 mm 2 m/s 574 mmHg 84%
05:00 +4°C° 0 mm 2 m/s 574 mmHg 83%
06:00 +4°C° 0 mm 2 m/s 574 mmHg 82%
07:00 +6°C° 0 mm 2 m/s 575 mmHg 77%
08:00 +8°C° 0 mm 2 m/s 576 mmHg 72%
09:00 +9°C° 0 mm 2 m/s 577 mmHg 67%
10:00 +10°C° 0 mm 2 m/s 577 mmHg 66%
11:00 +12°C° 0 mm 2 m/s 577 mmHg 65%
12:00 +12°C° 0 mm 3 m/s 578 mmHg 65%
13:00 +11°C° 0.1 mm 3 m/s 577 mmHg 66%
14:00 +11°C° 0.1 mm 3 m/s 577 mmHg 68%
15:00 +11°C° 0.1 mm 3 m/s 577 mmHg 70%
16:00 +9°C° 0 mm 3 m/s 576 mmHg 76%
17:00 +8°C° 0 mm 2 m/s 576 mmHg 82%
18:00 +6°C° 0 mm 2 m/s 575 mmHg 88%
19:00 +6°C° 0 mm 2 m/s 575 mmHg 87%
20:00 +6°C° 0 mm 2 m/s 575 mmHg 87%
21:00 +6°C° 0 mm 2 m/s 576 mmHg 86%
22:00 +5°C° 0 mm 2 m/s 576 mmHg 86%
23:00 +4°C° 0 mm 3 m/s 576 mmHg 87%

Depois de amanhã, 2 Outubro, Sexta-feira

Tempo Temperatura Precipitação Vento Pressão Humidade
00:00 +4°C° 0 mm 3 m/s 575 mmHg 87%
01:00 +4°C° 0 mm 3 m/s 575 mmHg 87%
02:00 +4°C° 0 mm 3 m/s 575 mmHg 87%
03:00 +4°C° 0 mm 3 m/s 575 mmHg 88%
04:00 +5°C° 0 mm 2 m/s 575 mmHg 86%
05:00 +5°C° 0 mm 2 m/s 575 mmHg 84%
06:00 +5°C° 0 mm 2 m/s 576 mmHg 82%
07:00 +8°C° 0 mm 1 m/s 577 mmHg 76%
08:00 +10°C° 0 mm 1 m/s 578 mmHg 70%
09:00 +12°C° 0 mm 1 m/s 579 mmHg 64%
10:00 +12°C° 0.3 mm 1 m/s 579 mmHg 65%
11:00 +12°C° 0.3 mm 2 m/s 579 mmHg 66%
12:00 +13°C° 0.3 mm 2 m/s 579 mmHg 66%
13:00 +13°C° 0.5 mm 2 m/s 579 mmHg 67%
14:00 +12°C° 0.5 mm 2 m/s 579 mmHg 68%
15:00 +12°C° 0.5 mm 2 m/s 579 mmHg 69%
16:00 +10°C° 0.4 mm 2 m/s 578 mmHg 77%
17:00 +8°C° 0.4 mm 2 m/s 578 mmHg 85%
18:00 +8°C° 0.4 mm 1 m/s 577 mmHg 93%
19:00 +7°C° 0.1 mm 2 m/s 578 mmHg 94%
20:00 +6°C° 0.1 mm 2 m/s 578 mmHg 94%
21:00 +6°C° 0.1 mm 2 m/s 578 mmHg 95%
22:00 +6°C° 0.1 mm 2 m/s 578 mmHg 95%
23:00 +6°C° 0.1 mm 2 m/s 578 mmHg 95%

3 Outubro, Sábado

Tempo Temperatura Precipitação Vento Pressão Humidade
00:00 +7°C° 0.1 mm 1 m/s 578 mmHg 94%
01:00 +7°C° 0.1 mm 1 m/s 578 mmHg 94%
02:00 +6°C° 0.1 mm 1 m/s 578 mmHg 94%
03:00 +6°C° 0.1 mm 1 m/s 578 mmHg 94%
04:00 +6°C° 0 mm 1 m/s 578 mmHg 93%
05:00 +4°C° 0 mm 0 m/s 578 mmHg 92%
06:00 +4°C° 0 mm 0 m/s 578 mmHg 90%
07:00 +6°C° 0 mm 1 m/s 578 mmHg 84%
08:00 +8°C° 0 mm 1 m/s 579 mmHg 78%
09:00 +10°C° 0 mm 1 m/s 580 mmHg 71%
10:00 +10°C° 0.1 mm 1 m/s 580 mmHg 71%
11:00 +10°C° 0.1 mm 2 m/s 580 mmHg 70%
12:00 +12°C° 0.1 mm 2 m/s 581 mmHg 69%
13:00 +10°C° 0.3 mm 2 m/s 580 mmHg 71%
14:00 +11°C° 0.3 mm 1 m/s 580 mmHg 73%
15:00 +11°C° 0.3 mm 1 m/s 580 mmHg 74%
16:00 +10°C° 0.2 mm 1 m/s 580 mmHg 78%
17:00 +9°C° 0.2 mm 1 m/s 579 mmHg 82%
18:00 +7°C° 0.2 mm 0 m/s 579 mmHg 86%
19:00 +7°C° 0 mm 1 m/s 579 mmHg 86%
20:00 +6°C° 0 mm 1 m/s 579 mmHg 86%
21:00 +6°C° 0 mm 1 m/s 579 mmHg 86%
22:00 +4°C° 0 mm 2 m/s 579 mmHg 88%
23:00 +4°C° 0 mm 2 m/s 579 mmHg 89%

4 Outubro, Domingo

Tempo Temperatura Precipitação Vento Pressão Humidade
00:00 +4°C° 0 mm 2 m/s 579 mmHg 91%
01:00 +4°C° 0 mm 2 m/s 579 mmHg 91%
02:00 +5°C° 0 mm 2 m/s 579 mmHg 91%
03:00 +5°C° 0 mm 2 m/s 579 mmHg 90%
04:00 +4°C° 0 mm 2 m/s 579 mmHg 89%
05:00 +4°C° 0 mm 2 m/s 579 mmHg 88%
06:00 +4°C° 0 mm 1 m/s 578 mmHg 87%
07:00 +6°C° 0 mm 1 m/s 579 mmHg 80%
08:00 +8°C° 0 mm 1 m/s 580 mmHg 72%
09:00 +10°C° 0 mm 1 m/s 581 mmHg 64%
10:00 +10°C° 0 mm 1 m/s 581 mmHg 62%
11:00 +11°C° 0 mm 1 m/s 581 mmHg 61%
12:00 +12°C° 0 mm 1 m/s 582 mmHg 59%
13:00 +12°C° 0 mm 1 m/s 581 mmHg 62%
14:00 +12°C° 0 mm 1 m/s 581 mmHg 64%
15:00 +12°C° 0 mm 1 m/s 581 mmHg 67%
16:00 +10°C° 0.1 mm 1 m/s 580 mmHg 75%
17:00 +9°C° 0.1 mm 1 m/s 580 mmHg 83%
18:00 +8°C° 0.1 mm 1 m/s 579 mmHg 90%
19:00 +7°C° 0 mm 1 m/s 579 mmHg 91%
20:00 +7°C° 0 mm 1 m/s 579 mmHg 91%
21:00 +6°C° 0 mm 1 m/s 579 mmHg 91%
22:00 +6°C° 0 mm 1 m/s 579 mmHg 91%
23:00 +5°C° 0 mm 1 m/s 579 mmHg 90%

5 Outubro, Segunda-feira

Tempo Temperatura Precipitação Vento Pressão Humidade
00:00 +5°C° 0 mm 1 m/s 579 mmHg 90%
01:00 +5°C° 0 mm 1 m/s 578 mmHg 90%
02:00 +5°C° 0 mm 1 m/s 578 mmHg 89%
03:00 +5°C° 0 mm 1 m/s 578 mmHg 89%
04:00 +5°C° 0 mm 1 m/s 578 mmHg 88%
05:00 +4°C° 0 mm 1 m/s 578 mmHg 86%
06:00 +3°C° 0 mm 0 m/s 578 mmHg 85%
07:00 +6°C° 0 mm 1 m/s 579 mmHg 76%
08:00 +9°C° 0 mm 1 m/s 580 mmHg 67%
09:00 +11°C° 0 mm 1 m/s 581 mmHg 59%
10:00 +12°C° 0 mm 1 m/s 581 mmHg 57%
11:00 +13°C° 0 mm 2 m/s 582 mmHg 55%
12:00 +14°C° 0 mm 2 m/s 582 mmHg 53%
13:00 +13°C° 0 mm 2 m/s 582 mmHg 57%
14:00 +13°C° 0 mm 2 m/s 581 mmHg 62%
15:00 +13°C° 0 mm 2 m/s 581 mmHg 66%
16:00 +11°C° 0 mm 1 m/s 580 mmHg 73%
17:00 +10°C° 0 mm 1 m/s 580 mmHg 80%
18:00 +7°C° 0 mm 0 m/s 579 mmHg 87%
19:00 +6°C° 0 mm 0 m/s 579 mmHg 88%
20:00 +6°C° 0 mm 0 m/s 579 mmHg 88%
21:00 +5°C° 0 mm 0 m/s 579 mmHg 88%
22:00 +5°C° 0 mm 0 m/s 578 mmHg 88%
23:00 +4°C° 0 mm 0 m/s 578 mmHg 88%
Mostrar mais